CZ-4C R/B, 40276

Orbit data source: Space-Track

CZ-4C R/B, 40276 is space debris in SSO originally from a launch on Mon, 20 Oct 2014 UTC launched from the Taiyaun Space Center, China (TSC). Debris objects in space refer to the collection of defunct objects orbiting the Earth. Examples of debris include non-operational satellites, rocket bodies, and fragments generated from explosions, collisions, or faulty payload assembly.

Loading next visibility...
Identifier
40276, 2014-063B
Orbit
SSO
Country
Flag of CNCN / PRC
Related business
Manufacturer
SAST
Mission
Spacecraft
Bus & Motor
CZ-4 STAGE 3, Unknown motor
Mass
~1,000 kg wet, ~1,000 kg dry
Launch date (UTC)
2014-10-20 (12 years ago)
Launch vehicle
Unknown
Launch site
Taiyaun Space Center, China (TSC)
Object type
Payload
Rocket body
Debris
Shape & HBR
Cyl, 2.5 m
Radar Cross Section
20.385 m², Large (>1 m²)

Expand to show TLE details & history
Last TLE update: 2 days ago

TLE from 2 days ago
0 CZ-4C R/B
1 40276U 14063B   26171.42160471 -.00000022  00000-0  41779-4 0  9992
2 40276 100.2334  97.4196 0142005 246.1752 112.4436 13.43036053571944
Epoch: 2026-06-20T10:07Z
TLE epoch observation values (Epoch: 2026-06-20T10:07:06.646Z)
Latitude
-0.00004°
Longitude
37.00545°
Altitude
1,142.564 km
Speed
7.261 km/s
True Right ascension
06h 29m 40s
True Declination
0° 00' 00"
Sunlit
Object was in daylight at epoch
Visualization orbit readout
Latitude
Unknown
Longitude
Unknown
Altitude
Unknown
Speed
Unknown
Apparent Right ascension
Unknown
Apparent Declination
Unknown
Sunlit
N/A
Visualization observer readout
Local Sidereal Time
21:39:13
Azimuth
Unknown
Elevation
Unknown
Doppler factor
Unknown
Orbital elements
Apogee altitude
1,201.456 km
Perigee altitude
989.202 km
Semi-major axis
7,473.466 km
Eccentricity
0.0142
Inclination
100.2334°
RAAN
97.4196°
Arg. of periapsis
246.1752°
True anomaly
113.93731°
Mean anomaly
112.4436°
Eccentric anomaly
113.19148°
Mean motion
3.35939 °/min
Orbital period
107.16 mins
BSTAR
0.000041779
Loading maneuver chart data...
Computing Atmospheric mass density...
Loading historical data...
Loading historical data...
Loading historical data...
Loading historical data...
Loading historical data...
Loading historical data...
Loading historical data...
Other satellites on launch #63 in the year 2014 (2014-10-20 UTC)

Documentation

Showing up to 5 results
|